Location: Bun Machan
(52.1403°N, 7.3744°W)
Time: 01:27:03
(UTC+00:00)

CZ-4B R/B - Visible Passes

Search period start: 24 October 2020 00:00
Search period end: 03 November 2020 00:00
Orbit: 703 x 802 km, 98.9° (Epoch: 23 October)

Date Brightness Start Highest point End Pass type
(mag) Time Alt. Az. Time Alt. Az. Time Alt. Az.
24 Oct 5.8 02:42:44 10° NNE 02:44:25 20° NNE 02:44:25 20° NNE visible
24 Oct 5.1 04:21:50 10° N 04:24:21 23° NNW 04:24:21 23° NNW visible
25 Oct 6.4 02:02:46 10° NE 02:03:23 13° NE 02:03:23 13° NE visible
25 Oct 5.2 03:41:04 10° N 03:43:19 25° N 03:43:19 25° N visible
25 Oct 5.5 05:21:32 10° NNW 05:23:15 13° NW 05:23:15 13° NW visible
26 Oct 5.7 03:00:34 10° NNE 03:02:18 21° NNE 03:02:18 21° NNE visible
26 Oct 5.3 04:40:00 10° N 04:42:13 19° NNW 04:42:13 19° NNW visible
27 Oct 6.3 02:20:25 10° NNE 02:21:16 14° NE 02:21:16 14° NE visible
27 Oct 5.3 03:59:05 10° N 04:01:12 23° N 04:01:12 23° N visible
28 Oct 5.6 03:18:28 10° NNE 03:20:11 21° NNE 03:20:11 21° NNE visible
28 Oct 5.4 04:58:15 10° N 05:00:06 16° NNW 05:00:06 16° NNW visible
29 Oct 6.1 02:38:09 10° NNE 02:39:10 16° NNE 02:39:10 16° NNE visible
29 Oct 5.3 04:17:09 10° N 04:19:05 20° NNW 04:19:05 20° NNW visible
30 Oct 5.6 03:36:25 10° N 03:38:03 20° N 03:38:03 20° N visible
30 Oct 5.6 05:16:42 10° NNW 05:17:59 13° NNW 05:17:59 13° NNW visible
31 Oct 6.0 02:55:58 10° NNE 02:57:01 16° NNE 02:57:01 16° NNE visible
31 Oct 5.4 04:35:18 10° N 04:36:57 17° NNW 04:36:57 17° NNW visible
01 Nov 6.5 02:15:52 10° NNE 02:16:01 11° NNE 02:16:01 11° NNE visible
01 Nov 5.6 03:54:25 10° N 03:55:56 19° N 03:55:56 19° N visible
01 Nov 5.7 05:35:42 10° NNW 05:35:52 10° NNW 05:35:52 10° NNW visible
02 Nov 5.9 03:13:51 10° NNE 03:14:54 16° NNE 03:14:54 16° NNE visible
02 Nov 5.5 04:53:32 10° N 04:54:50 15° NNW 04:54:50 15° NNW visible
